[[{"header":{"parameterUnit":"m.s-1","parameterCategory":1,"la1":30.2991,"la2":30.254,"lo1":-89.0895,"lo2":-89.0444,"dy":0.0017,"dx":0.0017,"nx":28,"ny":28,"refTime":"2025-04-07T21:00:00:Z","depth":0,"parameterNumber":2,"parameterNumberName":"U-component_of_WINDS"},"data":[0,0,0,0,0,0,0,0,0,0,0,0,0,0,0,0,0,0,0,0,0,0,0,0,0,0,0,0,0,0,0,0,0,0,0,0,0,0,0,0,0,0,0,0,0,0,0,0,0,0,0,0,0,0,0,0,0,0,2.2327,2.2327,0,2.2341,2.2341,2.2341,2.2305,2.2304,2.2302,2.2301,2.2316,2.2318,2.2319,0,0,0,0,0,0,0,0,0,0,0,0,0,2.2269,2.227,2.2327,2.2327,2.2327,2.2341,2.2341,2.2341,2.2305,2.2304,2.2302,2.2301,2.2316,2.2317,2.2319,0,0,0,0,0,0,0,0,0,0,0,0,0,2.229,2.2271,2.2327,2.2311,2.2309,2.2341,2.2341,2.2341,2.2305,2.2303,2.2302,2.23,2.2315,2.2317,2.2319,2.2367,0,0,2.2326,2.2327,0,0,0,0,0,0,0,0,2.2289,2.2292,2.2313,2.2312,2.231,2.2319,2.2326,2.235,2.2306,2.2307,2.2301,2.2299,2.2319,2.232,2.2327,2.2368,2.2369,2.2326,2.2328,2.2329,2.2329,0,0,0,0,0,0,0,2.2287,2.2291,2.2332,2.2313,2.2312,2.2303,2.2304,2.2331,2.2322,2.2307,2.2304,2.2306,2.2318,2.2325,2.2327,2.2369,2.2326,2.2328,2.233,2.233,2.2451,2.2453,0,0,0,0,0,0,2.2288,2.229,2.2332,2.2333,2.2295,2.2305,2.2307,2.2318,2.2322,2.2321,2.2308,2.2304,2.2322,2.2324,2.2327,2.2384,2.2329,2.2331,2.2332,2.2449,2.2452,2.2454,0,0,0,0,0,0,2.2287,2.2292,2.2331,2.2311,2.2315,2.2308,2.2322,2.2319,2.2326,2.2323,2.2321,2.2316,2.2321,2.2324,2.2358,2.2384,2.2332,2.2334,2.2447,2.245,2.2453,2.2498,0,0,0,0,0,0,2.2285,2.2292,2.2309,2.2311,2.2316,2.2361,2.2323,2.2321,2.233,2.2326,2.233,2.2329,2.232,2.2355,2.236,2.2386,2.2335,2.2445,2.2448,2.2452,2.2494,2.2502,2.2508,0,0,0,0,0,2.2283,2.2321,2.2311,2.2316,2.2338,2.2363,2.2366,2.2354,2.2333,2.2351,2.2348,2.2329,2.2381,2.2359,2.2364,2.2391,2.2443,2.2447,2.2451,2.249,2.25,2.2508,0,0,0,0,0,0,2.2323,2.2321,2.2309,2.2349,2.2357,2.2357,2.2379,2.2364,2.2377,2.2373,2.2358,2.2359,2.2396,2.2397,2.2372,2.2438,2.2408,2.2414,2.2436,2.2445,2.2452,2.2451,2.2337,0,0,0,0,0,2.2336,2.2356,2.2354,2.2389,2.2394,2.2386,2.2396,2.2386,2.2393,2.2396,2.2396,2.2404,2.2421,2.2433,2.2449,2.2494,2.2495,2.2516,2.2523,2.2529,2.2534,2.2558,2.2567,2.2468,2.2467,2.2467,0,0,2.2364,2.2366,2.2379,2.2397,2.2402,2.2423,2.2389,2.2412,2.2428,2.24,2.2431,2.2432,2.2439,2.2479,2.2496,2.2481,2.2562,2.2534,2.2539,2.2541,2.2563,2.2573,2.2581,2.247,2.247,2.2469,0,0,2.2425,2.2428,2.2458,2.2464,2.2471,2.2466,2.2473,2.2476,2.2475,2.2507,2.2486,2.2505,2.2536,2.2542,2.2549,2.2615,2.2598,2.262,2.2658,2.2682,2.269,2.2697,2.272,2.2728,2.2625,2.2626,2.2626,0,2.2458,2.2489,2.2476,2.2501,2.251,2.2486,2.2516,2.2522,2.2535,2.2541,2.2524,2.2563,2.2567,2.2607,2.2623,2.263,2.2638,2.2619,2.269,2.2697,2.2703,2.2725,2.2734,2.2628,2.2628,2.2628,2.2627,0,2.253,2.2552,2.2575,2.2588,2.2599,2.2627,2.2619,2.2632,2.2622,2.2619,2.2652,2.2655,2.2672,2.2681,2.2671,2.2721,2.2711,2.2692,2.2662,2.2715,2.2736,2.2744,2.2632,2.2631,2.263,2.263,0,0,2.2615,2.2621,2.2629,2.2635,2.2642,2.2659,2.2686,2.2702,2.2714,2.2724,2.2747,2.2774,2.2757,2.2765,2.2756,2.2777,2.2829,2.2756,2.2756,2.2769,2.2884,2.2898,2.2908,2.2818,2.282,2.2821,2.2883,0,2.2675,2.2721,2.2711,2.2756,2.2777,2.2755,2.2779,2.2786,2.2784,2.2801,2.2799,2.2819,2.2795,2.28,2.282,2.2818,2.2851,2.2814,2.2839,2.284,2.2837,2.2918,2.2932,2.2991,2.2891,2.2893,2.2893,0,2.2751,2.2764,2.2812,2.2816,2.2824,2.2846,2.286,2.2877,2.2885,2.2882,2.2892,2.2879,2.2907,2.2877,2.2914,2.2889,2.2899,2.29,2.2902,2.2903,2.2869,2.2921,2.301,2.3018,2.2906,2.2905,2.2904,0,2.2808,2.2837,2.287,2.2875,2.2881,2.2897,2.29,2.2907,2.2917,2.2931,2.2937,2.2954,2.2963,2.2976,2.2968,2.2946,2.3007,2.2976,2.3006,2.3006,2.3018,2.3018,2.3109,2.3026,2.3026,2.3026,2.3026,0,2.2876,2.2906,2.2895,2.2915,2.2949,2.2937,2.297,2.2971,2.2977,2.2997,2.298,2.2999,2.2988,2.3006,2.3,2.3033,2.3037,2.3035,2.3033,2.3037,2.3037,2.3042,2.3038,2.3028,2.3028,2.3027,2.3027,0,2.2945,2.2939,2.2973,2.2976,2.2978,2.3002,2.3005,2.3024,2.3021,2.3047,2.3052,2.3048,2.3069,2.3063,2.3086,2.3082,2.3123,2.3116,2.312,2.3118,2.3148,2.3145,2.3245,2.3258,2.3167,2.3168,2.3169,0,2.2988,2.301,2.3016,2.3029,2.3033,2.3053,2.3064,2.3054,2.3066,2.3078,2.3095,2.3115,2.313,2.3165,2.3164,2.3182,2.3174,2.3209,2.3177,2.318,2.3175,2.3173,2.3175,2.3215,2.3216,2.3217,2.3217,0,2.3065,2.3062,2.3078,2.3094,2.3108,2.312,2.3131,2.3142,2.3132,2.3147,2.3169,2.318,2.3204,2.3224,2.324,2.3243,2.3229,2.3228,2.3235,2.3238,2.324,2.3239,2.3136,2.3225,2.3224,2.3224,2.3223,2.3223,2.3122,2.3142,2.3149,2.3168,2.3175,2.3186,2.3204,2.3204,2.3221,2.3239,2.3233,2.3257,2.3266,2.3286,2.3292,2.3312,2.3298,2.331,2.3312,2.3315,2.3319,2.3237,2.3315,2.3314,2.3314,2.3314,2.3314,0,2.3198,2.3202,2.322,2.3236,2.3251,2.3237,2.3248,2.3262,2.3284,2.3293,2.3308,2.3333,2.3353,2.3354,2.3372,2.3388,2.3382,2.3393,2.3391,2.3392,2.3329,2.3321,2.3397,2.3397,2.3397,2.3397,2.3397,2.3397,2.324,2.3272,2.3269,2.3305,2.3309,2.3333,2.334,2.335,2.3357,2.3386,2.3402,2.3403,2.3409,2.3428,2.3445,2.3445,2.3453,2.3467,2.3464,2.3405,2.3397,2.3389,2.338,2.3468,2.3468,2.3525,2.3526,2.3526]},{"header":{"parameterUnit":"m.s-1","parameterCategory":1,"la1":30.2991,"la2":30.254,"lo1":-89.0895,"lo2":-89.0444,"dy":0.0017,"dx":0.0017,"nx":28,"ny":28,"refTime":"2025-04-07T21:00:00:Z","depth":0,"parameterNumber":3,"parameterNumberName":"V-component_of_WINDS"},"data":[0,0,0,0,0,0,0,0,0,0,0,0,0,0,0,0,0,0,0,0,0,0,0,0,0,0,0,0,0,0,0,0,0,0,0,0,0,0,0,0,0,0,0,0,0,0,0,0,0,0,0,0,0,0,0,0,0,0,-5.3209,-5.321,0,-5.3371,-5.3373,-5.3375,-5.3349,-5.3346,-5.3343,-5.334,-5.3504,-5.3511,-5.3518,0,0,0,0,0,0,0,0,0,0,0,0,0,-5.2873,-5.288,-5.3208,-5.3211,-5.3213,-5.3371,-5.3373,-5.3375,-5.3349,-5.3346,-5.3342,-5.3339,-5.3502,-5.351,-5.3519,0,0,0,0,0,0,0,0,0,0,0,0,0,-5.3026,-5.2882,-5.3208,-5.3219,-5.3221,-5.337,-5.3373,-5.3376,-5.335,-5.3346,-5.3341,-5.3338,-5.3499,-5.351,-5.352,-5.3668,0,0,-5.3552,-5.3556,0,0,0,0,0,0,0,0,-5.3017,-5.3038,-5.3215,-5.3218,-5.3221,-5.3335,-5.3315,-5.3474,-5.3351,-5.3301,-5.334,-5.3336,-5.3451,-5.3465,-5.3505,-5.3676,-5.3683,-5.3553,-5.3559,-5.3563,-5.3566,0,0,0,0,0,0,0,-5.3006,-5.3031,-5.3273,-5.3218,-5.3222,-5.3214,-5.3231,-5.3345,-5.3398,-5.3305,-5.3304,-5.3323,-5.3452,-5.3495,-5.3509,-5.3685,-5.3552,-5.3562,-5.3568,-5.3572,-5.3984,-5.3988,0,0,0,0,0,0,-5.2993,-5.3022,-5.3268,-5.3278,-5.3107,-5.3224,-5.3243,-5.3303,-5.3396,-5.3407,-5.3327,-5.3321,-5.3479,-5.3497,-5.3514,-5.3693,-5.3563,-5.3573,-5.3579,-5.3979,-5.3985,-5.399,0,0,0,0,0,0,-5.2986,-5.3015,-5.3261,-5.315,-5.318,-5.3234,-5.3302,-5.3308,-5.3351,-5.3413,-5.3422,-5.3361,-5.3477,-5.35,-5.363,-5.3699,-5.3578,-5.3587,-5.3974,-5.3981,-5.3987,-5.4053,0,0,0,0,0,0,-5.2977,-5.3013,-5.307,-5.3151,-5.3186,-5.3375,-5.3306,-5.3315,-5.337,-5.3364,-5.3447,-5.3457,-5.3475,-5.3614,-5.364,-5.3711,-5.3596,-5.3968,-5.3977,-5.3985,-5.4045,-5.4061,-5.4075,0,0,0,0,0,-5.2965,-5.3082,-5.3074,-5.3103,-5.326,-5.3379,-5.3399,-5.3418,-5.3375,-5.3433,-5.3472,-5.3454,-5.3687,-5.3628,-5.3657,-5.3732,-5.3964,-5.3974,-5.3985,-5.4038,-5.4058,-5.4075,0,0,0,0,0,0,-5.3008,-5.3093,-5.3084,-5.3231,-5.3298,-5.3374,-5.3448,-5.3439,-5.3519,-5.3511,-5.353,-5.3549,-5.3681,-5.3719,-5.3652,-5.3879,-5.3819,-5.3836,-5.385,-5.3869,-5.3884,-5.3872,-5.3604,0,0,0,0,0,-5.3034,-5.3125,-5.3194,-5.3317,-5.3351,-5.3394,-5.3447,-5.3456,-5.3525,-5.3553,-5.3602,-5.367,-5.3758,-5.3816,-5.39,-5.405,-5.4067,-5.4115,-5.413,-5.4143,-5.4157,-5.4238,-5.426,-5.4024,-5.4024,-5.4024,0,0,-5.309,-5.3148,-5.3204,-5.3327,-5.338,-5.3473,-5.3418,-5.3518,-5.3587,-5.3568,-5.3694,-5.3732,-5.3809,-5.3949,-5.4014,-5.3985,-5.4226,-5.4156,-5.4165,-5.4173,-5.4251,-5.4273,-5.4293,-5.4032,-5.403,-5.4029,0,0,-5.3239,-5.3292,-5.34,-5.3454,-5.3535,-5.3563,-5.3589,-5.3666,-5.3691,-5.3818,-5.3806,-5.3887,-5.4039,-5.4094,-5.4142,-5.4311,-5.4297,-5.4338,-5.4417,-5.4496,-5.4514,-5.4531,-5.459,-5.4612,-5.4351,-5.4352,-5.4352,0,-5.3298,-5.3438,-5.3457,-5.3559,-5.3613,-5.3601,-5.371,-5.3761,-5.3865,-5.3902,-5.3869,-5.4059,-5.411,-5.4262,-5.4304,-5.4343,-5.4372,-5.4328,-5.451,-5.4527,-5.4543,-5.46,-5.4622,-5.4356,-5.4356,-5.4355,-5.4355,0,-5.3506,-5.3603,-5.3681,-5.3782,-5.3845,-5.395,-5.3984,-5.4045,-5.4048,-5.4079,-5.4208,-5.4268,-5.4364,-5.4401,-5.4405,-5.4554,-5.4534,-5.4506,-5.4445,-5.4569,-5.4623,-5.4645,-5.4362,-5.4361,-5.4359,-5.4358,0,0,-5.3687,-5.3797,-5.3825,-5.3871,-5.3959,-5.4034,-5.4137,-5.4232,-5.4284,-5.4356,-5.4443,-5.4571,-5.4545,-5.4599,-5.4609,-5.4679,-5.4808,-5.4641,-5.4643,-5.467,-5.4974,-5.4995,-5.502,-5.4799,-5.4803,-5.4807,-5.4968,0,-5.3844,-5.4029,-5.4048,-5.4212,-5.4301,-5.4291,-5.4381,-5.4444,-5.4476,-5.4555,-5.4589,-5.468,-5.4639,-5.4671,-5.4739,-5.4778,-5.4869,-5.4766,-5.4879,-5.4883,-5.486,-5.5048,-5.5071,-5.522,-5.4989,-5.4993,-5.4995,0,-5.4052,-5.4131,-5.4304,-5.4379,-5.4417,-5.4498,-5.4586,-5.4662,-5.4733,-5.4751,-5.4811,-5.4812,-5.4918,-5.4854,-5.4999,-5.4929,-5.4976,-5.5001,-5.5008,-5.5019,-5.4946,-5.5064,-5.5268,-5.529,-5.5029,-5.5026,-5.5024,0,-5.4166,-5.4315,-5.4438,-5.4477,-5.4567,-5.4624,-5.4665,-5.4731,-5.4787,-5.4863,-5.4899,-5.4987,-5.5035,-5.5102,-5.5126,-5.5077,-5.527,-5.5208,-5.5287,-5.5286,-5.5328,-5.5325,-5.5542,-5.5359,-5.5359,-5.5358,-5.5358,0,-5.4339,-5.4446,-5.449,-5.4565,-5.4684,-5.4705,-5.4821,-5.4858,-5.4918,-5.4999,-5.4995,-5.5072,-5.5099,-5.518,-5.5199,-5.5316,-5.5338,-5.5354,-5.5358,-5.5354,-5.5352,-5.5385,-5.5375,-5.5364,-5.5363,-5.5362,-5.5361,0,-5.4487,-5.4521,-5.4654,-5.4728,-5.475,-5.4833,-5.4897,-5.4969,-5.4999,-5.5102,-5.5128,-5.5174,-5.5269,-5.53,-5.5414,-5.5427,-5.5563,-5.5558,-5.5539,-5.554,-5.5616,-5.5609,-5.5862,-5.5896,-5.5691,-5.5693,-5.5695,0,-5.4595,-5.4676,-5.476,-5.4815,-5.4857,-5.4945,-5.5002,-5.5025,-5.5084,-5.5171,-5.5232,-5.5326,-5.5403,-5.5554,-5.5598,-5.5685,-5.5681,-5.5764,-5.5694,-5.5688,-5.5682,-5.5676,-5.5684,-5.5777,-5.5779,-5.5781,-5.5782,0,-5.4783,-5.4796,-5.4878,-5.4966,-5.5034,-5.5104,-5.5172,-5.5217,-5.525,-5.5316,-5.5413,-5.5472,-5.5589,-5.5682,-5.5771,-5.5811,-5.5802,-5.5804,-5.5827,-5.5824,-5.5809,-5.5817,-5.5575,-5.5798,-5.5796,-5.5795,-5.5794,-5.5794,-5.4914,-5.4985,-5.5055,-5.5146,-5.52,-5.5263,-5.5335,-5.5373,-5.5455,-5.5552,-5.5561,-5.5666,-5.5733,-5.5851,-5.5896,-5.5977,-5.5953,-5.5986,-5.5995,-5.6002,-5.6008,-5.5797,-5.5993,-5.5993,-5.5993,-5.5992,-5.5992,0,-5.5101,-5.5145,-5.5229,-5.5324,-5.5396,-5.5382,-5.5456,-5.5517,-5.5609,-5.5673,-5.5748,-5.5859,-5.5949,-5.6,-5.6089,-5.6145,-5.6143,-5.6167,-5.6163,-5.6172,-5.6025,-5.5996,-5.6167,-5.6167,-5.6167,-5.6167,-5.6167,-5.6167,-5.5207,-5.5327,-5.5348,-5.5494,-5.5537,-5.564,-5.5684,-5.5741,-5.5793,-5.5917,-5.5992,-5.6025,-5.6083,-5.6177,-5.6258,-5.627,-5.6303,-5.633,-5.634,-5.6201,-5.6183,-5.6166,-5.6139,-5.6337,-5.6338,-5.6481,-5.6482,-5.6483]}]]